Hourly Data Report for October 15, 2021

CARBERRY CS
MANITOBA
Current Station Operator: ECCC - MSC

49°54'20.900" N
99°21'26.800" W
383.50 m
5010547
71170
WZE

Download Data

Hourly Data (October 2021)
Hourly Data Report for October 15, 2021
TIME
LST
Temp Definition
°C
Dew Point Definition
°C
Rel Hum Definition
%
Precip. Amount Definition
mm

Wind Dir Definition
10's deg

Wind Spd Definition
km/h
Visibility Definition
km
Stn Press Definition
kPa
Hmdx Definition


Wind Chill Definition


Weather Definition


00:00 4.8 3.7 93 0.2 26 18   96.13     LegendNANA
01:00 4.8 4.0 95 0.0 26 22   96.17     LegendNANA
02:00 4.5 3.9 96 0.6 26 21   96.19     LegendNANA
03:00 4.2 3.6 96 0.2 26 20   96.22     LegendNANA
04:00 4.2 3.6 96 0.2 26 20   96.23     LegendNANA
05:00 4.3 3.7 96 0.0 26 22   96.23     LegendNANA
06:00 4.2 3.3 94 0.0 26 23   96.27     LegendNANA
07:00 3.9 3.0 94 0.0 26 23   96.31     LegendNANA
08:00 4.2 2.7 90 0.0 27 22   96.36     LegendNANA
09:00 4.4 2.2 86 0.0 27 28   96.37     LegendNANA
10:00 4.5 2.4 86 0.0 27 27   96.40     LegendNANA
11:00 6.2 1.4 71 0.0 28 33   96.40     LegendNANA
12:00 6.9 1.9 70 0.0 28 30   96.41     LegendNANA
13:00 9.1 0.8 56 0.0 28 34   96.38     LegendNANA
14:00 9.9 0.6 52 0.0 29 36   96.39     LegendNANA
15:00 10.5 0.8 51 0.0 29 31   96.43     LegendNANA
16:00 11.0 0.0 46 0.0 30 27   96.46     LegendNANA
17:00 10.2 0.6 51 0.0 28 23   96.46     LegendNANA
18:00 8.6 0.5 57 0.0 27 21   96.48     LegendNANA
19:00 6.7 0.6 65 0.0 26 13   96.51     LegendNANA
20:00 5.0 0.6 73 0.0 27 14   96.56     LegendNANA
21:00 4.0 0.2 76 0.0 26 11   96.56     LegendNANA
22:00 4.2 0.5 77 0.0 26 19   96.61     LegendNANA
23:00 3.0 0.2 82 0.0 26 16   96.62     LegendNANA

Notes on Data Quality.

Legend

  • E = Estimated
  • M = Missing
  • NA = Not Available*
  • [empty] = Indicates an unobserved value
Date modified: